Temperature
16 16 16 16 16 16 16 16 16 16 17 16 16 15 15 15 15 15 15 15 15 15 15 15 15 15 15 15 15 15 15 15 15 15 15 15 15 15
16 16 16 16 16 16 16 16 16 16 16 16 15 15 15 15 15 14 14 15 15 15 15 15 15 15 15 15 15 15 15 15 15 15 15 15 15 14
15 15 15 15 15 15 15 15 15 15 15 15 15 15 14 14 14 14 14 14 14 15 15 15 15 15 15 15 15 15 15 15 15 15 15 15 14 14
15 15 15 15 15 15 15 15 15 15 15 15 15 14 14 14 14 14 14 14 14 14 15 15 15 15 15 15 15 15 15 15 14 14 14 14 14 14
15 15 15 15 14 14 14 15 15 15 14 14 14 14 14 14 14 14 14 14 14 14 14 14 14 14 14 14 14 14 14 14 14 14 14 14 14 14
15 14 14 14 14 14 14 14 14 14 14 14 14 14 14 14 13 13 14 13 13 14 14 14 14 14 14 14 14 14 14 14 14 14 14 14 14 14
14 14 14 14 14 14 14 14 14 14 14 14 14 14 14 13 14 13 13 13 13 13 13 13 13 14 14 14 14 14 14 14 14 13 13 13 13 13
14 14 14 14 14 14 14 14 14 14 14 14 14 14 13 13 13 13 13 13 13 13 13 13 13 13 13 13 14 14 13 13 13 13 13 13 13 13
13 13 13 14 14 14 14 14 14 14 14 13 13 13 13 13 13 13 13 13 13 13 13 13 13 13 13 13 13 13 13 13 13 13 13 13 13 13
13 13 13 13 13 13 13 13 13 13 13 13 13 13 13 13 13 13 13 12 12 13 13 13 13 13 13 13 13 13 13 13 13 13 13 13 13 12
13 13 13 13 13 13 13 13 13 13 13 13 13 13 13 13 13 12 12 12 13 13 13 12 13 13 13 13 13 13 13 13 13 13 12 12 12 12
13 13 13 13 13 13 13 13 13 13 13 13 13 13 13 13 13 12 12 12 13 13 13 12 12 12 13 13 12 12 12 12 12 12 12 12 12 12
13 13 13 13 13 13 13 12 13 13 12 12 12 12 12 12 12 12 12 12 12 13 13 12 12 12 12 12 12 12 12 12 12 12 12 12 12 12
13 13 12 13 13 13 12 12 12 12 12 12 12 12 12 12 12 12 12 12 12 12 12 12 12 12 12 12 12 12 12 12 12 12 12 12 12 12
12 12 12 12 12 12 12 12 12 12 12 12 12 12 12 12 12 12 12 12 12 12 12 12 11 12 12 12 12 12 12 12 12 11 11 11 11 11
12 12 12 12 12 12 12 12 12 12 12 12 12 12 12 12 12 12 12 12 12 12 12 11 11 11 11 11 12 12 12 12 12 11 11 11 11 11
12 12 12 12 12 12 12 12 11 12 12 12 12 12 12 12 12 12 12 12 12 12 12 11 11 11 11 11 11 12 12 11 11 11 11 11 11 11
11 11 11 11 11 11 12 12 12 12 12 11 11 12 12 12 12 12 12 12 11 11 11 11 11 11 11 11 11 11 11 11 11 11 11 11 11 11
11 11 11 11 11 11 11 11 11 11 11 11 11 11 11 11 11 11 11 11 11 11 11 11 11 11 11 11 11 11 11 11 11 11 11 11 11 11
11 11 11 11 11 11 11 11 11 11 11 11 11 11 11 11 11 11 11 11 11 11 11 11 11 11 11 11 11 11 11 11 11 11 11 11 11 11
11 11 11 11 11 11 11 11 11 11 11 11 11 11 11 11 11 11 11 11 11 11 11 11 11 11 11 11 11 11 11 11 10 10 10 10 10 10
11 11 11 11 11 11 11 11 11 11 11 11 11 11 11 11 11 11 11 11 11 11 11 11 11 10 10 11 11 11 11 10 10 10 10 10 10 10
10 10 11 11 11 10 10 10 10 10 10 10 10 10 10 10 10 10 10 10 10 10 10 10 10 10 11 11 11 11 11 10 10 10 10 10 10 10
Wind_Speed
4 5 4 3 4 4 4 4 4 5 4 2 2 2 1 1 2 2 2 4 4 3 2 2 2 2 3 5 7 8 8 9 9 9 9 10 11 12
4 4 4 4 3 4 4 5 5 5 5 3 2 2 1 2 3 2 2 4 6 5 4 3 3 3 3 4 6 7 8 9 9 9 9 10 11 11
5 5 5 4 4 3 4 5 4 4 5 4 3 2 3 3 2 3 4 4 4 7 5 5 4 3 4 4 5 6 6 7 8 9 9 9 9 10
5 5 5 4 4 4 4 5 4 4 5 5 4 3 3 4 3 4 3 4 4 6 8 7 6 5 4 5 5 6 6 7 7 7 8 8 8 9
5 5 6 5 5 5 5 5 5 5 5 5 5 3 3 3 3 4 4 3 5 5 8 9 8 7 6 6 6 6 7 7 7 7 7 7 7 7
5 5 5 6 6 6 5 6 6 5 5 5 5 4 4 4 4 4 4 4 4 4 4 5 7 9 9 8 7 7 8 8 8 7 7 7 7 7
5 5 5 5 5 5 6 6 6 6 6 6 6 5 4 4 5 5 5 4 4 4 4 4 4 5 6 9 9 8 8 8 8 8 8 7 7 7
6 5 5 6 6 7 8 8 8 8 8 7 7 6 6 6 5 5 5 5 4 4 4 5 4 4 4 5 6 8 8 9 9 9 9 8 8 8
6 6 6 5 5 6 7 9 10 10 9 9 8 8 6 6 5 6 5 6 6 4 4 5 4 4 4 4 8 9 9 9 9 10 9 9 9 9
7 7 7 6 5 5 6 7 8 9 10 10 9 8 7 6 6 7 7 6 6 4 4 5 4 4 4 4 9 10 9 10 10 10 10 9 9 10
7 7 7 7 4 4 6 7 7 7 7 7 7 7 5 5 5 5 5 6 5 4 4 5 4 4 4 4 6 11 11 10 11 11 11 10 10 10
6 6 6 6 4 5 7 7 7 7 6 6 7 8 8 8 9 8 7 7 6 5 4 4 4 4 4 3 3 5 7 9 12 12 12 11 10 9
6 5 4 4 5 7 7 7 7 7 6 7 7 7 7 7 8 8 8 7 7 6 3 4 4 5 4 3 3 4 4 4 6 8 10 12 12 10
6 5 4 3 6 7 7 6 7 7 6 6 6 6 6 6 6 7 7 7 6 5 4 4 5 5 5 4 4 4 4 4 5 5 6 9 12 13
5 4 4 5 6 6 7 8 7 6 5 6 6 6 6 5 5 5 5 5 6 6 6 6 6 5 5 5 5 4 4 4 5 5 5 5 6 6
5 4 5 7 7 5 5 5 5 5 5 5 5 5 4 5 6 5 5 5 5 5 5 7 7 6 6 5 5 5 5 4 4 4 5 5 5 6
4 4 4 3 4 4 4 4 4 5 5 5 5 4 5 5 5 4 4 4 5 5 5 5 5 5 6 6 6 6 5 4 4 3 4 5 5 5
5 5 4 4 4 4 4 4 4 5 5 5 5 5 4 4 4 4 4 4 4 4 4 4 4 4 4 5 5 6 4 4 3 3 4 5 5 5
6 5 4 4 4 5 5 5 4 4 4 4 4 4 4 4 4 4 4 4 4 4 4 4 4 5 5 5 4 5 4 3 4 3 4 4 4 4
5 5 5 5 5 5 5 4 4 4 4 4 5 4 4 4 5 4 4 5 5 4 4 4 4 5 5 5 4 4 6 5 4 4 4 4 3 3
5 5 5 5 5 4 4 4 4 4 4 4 4 4 5 5 5 5 4 5 6 5 5 5 3 4 4 4 5 4 4 6 4 4 5 5 4 4
5 5 5 5 5 5 4 5 5 4 5 5 4 4 4 4 5 5 5 5 5 5 5 4 3 4 5 5 6 5 4 3 4 4 4 4 5 5
4 4 4 5 5 5 5 5 6 5 5 5 4 4 4 4 4 4 4 5 4 5 5 4 4 4 5 6 6 6 6 6 5 5 4 3 5 4
Wind_Direction
239 234 246 249 247 254 249 242 253 267 267 231 237 219 201 182 134 199 203 157 172 186 203 219 225 233 237 231 224 220 220 219 219 215 209 211 213 215
249 253 254 254 251 244 246 249 250 257 270 273 253 234 221 234 169 211 221 182 191 191 205 217 224 230 231 229 224 220 219 219 218 216 214 214 216 217
244 236 239 248 246 243 241 245 243 244 250 262 253 212 208 240 222 227 227 228 206 185 199 213 221 228 233 231 224 219 221 220 216 215 213 209 211 216
246 242 239 231 232 242 241 241 240 238 239 246 250 228 214 220 227 244 244 241 245 191 195 209 220 228 236 238 230 221 218 216 215 212 210 209 213 216
254 246 240 235 234 237 239 241 238 231 228 233 240 235 233 226 233 239 242 247 254 214 197 205 214 220 229 236 233 223 215 208 208 209 206 205 209 214
262 258 247 234 232 234 237 240 239 237 231 233 237 232 231 226 232 243 243 236 251 251 229 219 212 213 220 220 220 217 212 205 203 205 202 204 209 214
265 258 250 238 244 241 246 244 237 235 232 233 234 232 232 227 231 239 248 248 241 245 249 238 221 225 219 211 209 204 204 204 205 205 205 209 216 220
264 260 252 235 232 231 240 248 252 243 240 239 240 237 235 236 233 241 246 249 254 233 245 253 247 243 235 223 182 187 200 203 202 205 208 211 216 219
261 260 263 254 239 250 238 233 242 245 246 244 247 249 244 240 237 239 243 256 263 265 248 252 244 244 240 211 167 184 198 205 206 207 208 213 217 219
257 256 258 263 261 259 259 250 242 234 231 233 242 247 248 248 236 236 242 246 251 242 244 252 250 250 249 224 169 179 198 208 210 209 210 214 216 219
257 254 253 257 256 257 257 257 254 245 230 223 234 245 256 243 243 244 241 244 251 244 230 249 254 256 248 232 187 184 198 207 211 212 214 215 218 223
255 251 244 244 246 243 252 251 250 249 243 227 220 227 231 223 215 226 237 240 247 250 226 235 246 246 250 235 222 204 211 210 210 211 213 214 215 224
262 263 258 205 226 241 250 249 249 254 246 238 232 229 224 221 217 217 227 234 243 253 237 224 243 244 248 249 246 235 230 224 213 215 210 207 210 219
269 270 265 222 237 242 243 243 248 247 242 238 238 234 229 224 218 215 218 231 246 255 253 241 247 251 247 248 251 240 236 231 228 228 218 197 205 214
270 286 278 252 252 240 229 229 233 235 235 234 235 236 234 227 218 211 210 218 234 239 231 231 239 242 246 251 251 246 240 235 230 231 227 215 215 215
266 257 235 237 245 253 233 220 226 231 235 237 240 240 233 223 217 211 212 214 224 226 220 222 232 240 239 246 250 248 242 239 233 233 234 231 225 219
281 266 258 246 241 235 232 228 228 223 225 234 238 237 230 224 225 215 212 216 225 224 218 214 219 229 242 248 245 248 248 246 239 232 235 234 230 225
258 252 254 257 257 253 245 236 228 227 229 233 236 232 226 223 226 223 219 223 228 230 224 214 212 216 231 235 245 247 245 242 241 235 241 238 233 227
241 250 251 254 254 251 249 242 236 231 237 236 234 230 225 220 225 229 228 230 234 235 230 221 216 221 232 241 233 224 245 244 235 236 240 242 240 234
244 248 246 247 249 253 254 250 242 235 233 236 236 235 229 222 224 228 228 230 235 240 239 231 224 228 237 249 256 239 216 235 237 239 244 245 237 208
255 251 246 244 247 248 251 250 246 240 238 237 236 241 238 231 230 231 230 228 239 240 238 239 235 225 241 252 252 247 221 204 229 244 248 244 239 230
256 255 249 246 245 245 244 244 239 235 234 234 234 238 243 239 235 236 241 241 242 245 246 246 229 228 237 240 244 247 243 211 207 213 237 254 252 247
253 256 253 246 243 243 245 241 239 237 236 237 238 240 244 245 244 240 241 247 252 253 250 243 235 233 233 234 240 244 236 223 217 211 219 207 207 208
Height
1524 1524 1524 1524 1524 1524 1525 1525 1526 1525 1525 1525 1525 1525 1525 1524 1524 1524 1524 1523 1524 1524 1524 1524 1524 1525 1525 1526 1527 1527 1528 1528 1529 1530 1531 1532 1532 1533
1520 1520 1520 1521 1521 1522 1522 1522 1523 1523 1522 1523 1523 1523 1523 1523 1522 1522 1522 1521 1522 1522 1522 1522 1522 1522 1523 1523 1524 1524 1525 1525 1526 1527 1528 1528 1529 1530
1517 1517 1517 1517 1518 1518 1519 1519 1520 1520 1520 1520 1521 1520 1519 1520 1520 1519 1520 1519 1520 1519 1519 1519 1519 1519 1520 1520 1520 1521 1522 1522 1523 1523 1524 1525 1526 1527
1514 1514 1514 1514 1514 1515 1515 1516 1516 1516 1517 1517 1517 1517 1517 1517 1517 1516 1517 1518 1517 1517 1516 1516 1516 1516 1517 1517 1517 1518 1518 1519 1520 1520 1521 1522 1523 1524
1510 1510 1510 1510 1510 1511 1511 1512 1513 1513 1513 1514 1514 1514 1515 1515 1514 1514 1515 1514 1514 1514 1514 1513 1513 1513 1513 1514 1514 1514 1515 1516 1516 1517 1518 1519 1520 1521
1507 1506 1506 1506 1507 1507 1508 1508 1509 1510 1510 1510 1511 1511 1511 1511 1512 1512 1512 1511 1511 1512 1511 1511 1510 1510 1510 1510 1510 1511 1512 1512 1513 1514 1515 1515 1516 1517
1503 1503 1503 1503 1503 1504 1504 1505 1505 1506 1507 1507 1507 1507 1508 1508 1508 1509 1509 1509 1508 1508 1508 1508 1507 1507 1507 1506 1506 1507 1508 1509 1510 1511 1512 1512 1513 1514
1500 1500 1500 1499 1499 1499 1500 1500 1501 1502 1503 1503 1503 1503 1503 1504 1505 1505 1506 1506 1506 1506 1505 1505 1505 1504 1504 1504 1503 1504 1504 1505 1506 1507 1508 1509 1510 1511
1497 1496 1497 1497 1496 1496 1496 1496 1497 1497 1498 1498 1499 1499 1500 1500 1501 1502 1502 1502 1502 1502 1502 1501 1501 1501 1501 1500 1500 1500 1501 1501 1502 1503 1504 1505 1507 1507
1493 1493 1493 1492 1492 1492 1492 1492 1492 1492 1493 1493 1494 1495 1496 1497 1497 1498 1497 1498 1498 1499 1499 1499 1499 1498 1498 1498 1497 1497 1497 1498 1499 1500 1501 1502 1503 1504
1490 1490 1489 1489 1488 1488 1488 1488 1488 1488 1489 1489 1489 1490 1491 1492 1493 1494 1495 1495 1495 1495 1495 1496 1496 1495 1495 1495 1495 1494 1494 1495 1495 1496 1497 1498 1499 1500
1486 1486 1485 1485 1484 1484 1484 1484 1483 1484 1485 1485 1485 1486 1487 1488 1489 1489 1490 1491 1492 1492 1492 1492 1492 1493 1493 1492 1492 1492 1492 1492 1492 1493 1493 1494 1495 1496
1482 1482 1482 1481 1480 1480 1480 1480 1479 1480 1481 1481 1482 1482 1483 1483 1484 1485 1486 1487 1488 1488 1489 1488 1489 1490 1490 1490 1489 1489 1489 1489 1489 1490 1490 1491 1492 1492
1478 1478 1477 1477 1476 1475 1475 1475 1475 1476 1476 1477 1478 1479 1479 1480 1480 1481 1482 1482 1483 1484 1484 1485 1486 1486 1487 1486 1486 1486 1486 1486 1486 1487 1487 1487 1488 1489
1475 1474 1473 1472 1471 1471 1471 1471 1472 1472 1472 1473 1474 1475 1476 1476 1477 1477 1478 1479 1479 1480 1481 1481 1482 1483 1483 1483 1484 1483 1483 1483 1484 1484 1484 1484 1484 1485
1471 1470 1469 1468 1468 1467 1467 1468 1468 1468 1469 1470 1470 1471 1472 1473 1473 1474 1475 1476 1476 1477 1478 1478 1479 1480 1480 1480 1481 1481 1481 1481 1480 1480 1481 1481 1481 1482
1467 1466 1466 1465 1465 1465 1465 1465 1465 1466 1466 1466 1467 1468 1469 1470 1470 1470 1471 1472 1473 1473 1474 1475 1476 1476 1477 1477 1478 1478 1478 1477 1477 1477 1477 1477 1478 1478
1464 1463 1463 1463 1462 1462 1462 1462 1462 1462 1463 1463 1463 1464 1465 1466 1466 1467 1468 1468 1470 1470 1471 1472 1473 1473 1474 1474 1474 1474 1475 1474 1474 1474 1474 1474 1475 1475
1461 1460 1460 1460 1460 1460 1460 1460 1460 1460 1460 1460 1460 1461 1462 1462 1463 1464 1464 1465 1466 1467 1467 1468 1469 1469 1470 1470 1470 1471 1471 1471 1472 1472 1471 1471 1472 1472
1457 1456 1456 1457 1457 1457 1457 1457 1457 1457 1457 1457 1458 1458 1459 1459 1460 1460 1461 1462 1463 1464 1464 1465 1465 1465 1466 1467 1467 1467 1467 1468 1469 1469 1469 1469 1469 1469
1453 1453 1453 1453 1453 1453 1453 1454 1454 1454 1454 1454 1455 1455 1456 1456 1456 1457 1458 1458 1459 1460 1460 1461 1461 1462 1463 1464 1464 1464 1464 1464 1465 1465 1466 1466 1466 1466
1450 1450 1450 1450 1450 1450 1450 1450 1451 1451 1451 1451 1452 1452 1452 1453 1453 1454 1454 1455 1456 1456 1457 1458 1458 1459 1460 1460 1460 1460 1461 1461 1461 1462 1462 1463 1463 1463
1446 1446 1446 1446 1446 1446 1447 1447 1447 1448 1448 1448 1448 1449 1449 1449 1449 1450 1450 1451 1452 1452 1453 1453 1454 1455 1455 1456 1456 1457 1457 1457 1458 1459 1459 1459 1459 1460